LEPO2: Verdigris, River, Lenapah, OK

Data processed at Sat Mar 10 2018 23:07


All information presented herein is the property of the government of the United States of America and may be revised or deleted at any time without prior notice.
Dissemination of this information without the expressed written consent of the Public Affairs Office, Tulsa District U.S. Army Corps of Engineers is strictly prohibited.
These data are gathered electronically and, as presented, have not undergone any form of quality control. These data are not guaranteed to be valid or correct.
Go to home page.
Go to station list.

Upstream stations:

Downstream station:
Previous Day
Next Day
Current Day
    
SHEF ID:       LEPO2     Verdigris River near Lenapah, OK
STATION TYPE:  

               PRECIP     STAGE  STAGE(2)  RIV-FLOW   VOLTAGE  BAT-LOAD
                   in        ft        ft       cfs      volt      volt
              Ccp-Rev   Ccp-Rev   Ccp-Rev   Ccp-Rev   Ccp-Rev   Ccp-Rev
(US/Central)
03/08 00:00      0.00      4.20      4.23       167     12.80     11.66
03/08 01:00      0.00      4.20      4.22       167     12.80     11.66
03/08 02:00      0.00      4.19      4.22       165     12.80     11.66
03/08 03:00      0.00      4.19      4.22       165     12.70     11.60
03/08 04:00      0.00      4.18      4.21       162     12.70     11.60
03/08 05:00      0.00      4.18      4.21       162     12.70     11.54
03/08 06:00      0.00      4.18      4.21       162     12.70     11.54
03/08 07:00      0.00      4.17      4.20       160     12.70     11.54
03/08 08:00      0.00      4.17      4.19       160     13.90     11.54
03/08 09:00      0.00      4.16      4.18       158     13.90     12.71
03/08 10:00      0.00      4.16      4.17       158     13.90     12.77
03/08 11:00      0.00      4.15      4.17       156     13.90     12.65
03/08 12:00      0.00      4.15      4.16       156     13.90     12.71
03/08 13:00      0.00      4.14      4.16       154     14.00     12.71
03/08 14:00      0.00      4.14      4.15       154     14.00     12.71
03/08 15:00      0.00      4.13      4.13       152     14.00     12.71
03/08 16:00      0.00      4.12      4.10       150     14.00     12.65
03/08 17:00      0.00      4.12      4.14       150     14.00     12.48
03/08 18:00      0.00      4.12      4.13       150     13.50     12.48
03/08 19:00      0.00      4.11      4.13       147     13.10     12.19
03/08 20:00      0.00      4.11      4.13       147     13.00     11.83
03/08 21:00      0.00      4.11      4.13       147     12.90     11.77
03/08 22:00      0.00      4.11      4.13       147     12.90     11.72
03/08 23:00      0.00      4.10      4.13       145     12.90     11.72